Simultaneous Nadir Overpasses (SNOs) Predictions

Prediction of SNOs between GOES-14 and NPP Satellite Orbit:

Table of predicted SNOs for the next 14.0 days since TLE Epoch: 6/4/2022
Index Date Time (GOES-14) GOES-14 Lat,Lon NPP Lat,Lon Distance(km) Time Diff (sec)
1 06/04/2022 20:28:20 0.02,-104.69 -0.21,-105.66 110.59 18
2 06/05/2022 20:07:58 -0.00,-104.69 0.79,-101.13 405.51 80
3 06/07/2022 08:29:48 -0.03,-104.46 0.41,-106.40 221.91 80
4 06/08/2022 08:13:44 -0.02,-104.46 -0.59,-101.87 295.04 80
5 06/09/2022 20:33:03 0.05,-104.71 -0.54,-107.20 283.91 80
6 06/10/2022 20:17:00 0.04,-104.71 0.47,-102.67 232.25 80
7 06/12/2022 08:36:09 -0.07,-104.46 0.73,-107.94 397.09 80
8 06/13/2022 08:20:06 -0.06,-104.46 -0.28,-103.41 119.35 80
9 06/14/2022 20:39:26 0.10,-104.72 -0.78,-108.75 459.19 80
10 06/15/2022 20:23:22 0.08,-104.71 0.17,-104.21 56.61 80
